When you browse on this site, cookies collect data to enhance your experience and personalize the content and advertising you see.
Visit our Privacy Policy to learn more. By continuing to use the site, you agree to this use of cookies and data.

Stündliche Wetter Halytsya

Heute, 14 Juli, Dienstag

Zeit Temperatur Niederschläge Wind Luftdruck Luftfeuchtigkeit
00:00 +13°C° 0 mm 5 m/S 746 mmHg 90%
01:00 +13°C° 0 mm 5 m/S 746 mmHg 90%
02:00 +13°C° 0 mm 6 m/S 746 mmHg 89%
03:00 +13°C° 0.1 mm 6 m/S 746 mmHg 90%
04:00 +11°C° 0.1 mm 6 m/S 746 mmHg 91%
05:00 +11°C° 0.1 mm 6 m/S 745 mmHg 91%
06:00 +13°C° 0.2 mm 6 m/S 745 mmHg 91%
07:00 +13°C° 0.2 mm 6 m/S 746 mmHg 90%
08:00 +13°C° 0.2 mm 6 m/S 746 mmHg 89%
09:00 +12°C° 1.4 mm 7 m/S 746 mmHg 89%
10:00 +12°C° 1.4 mm 7 m/S 746 mmHg 90%
11:00 +12°C° 1.4 mm 7 m/S 745 mmHg 90%
12:00 +12°C° 1.6 mm 7 m/S 746 mmHg 91%
13:00 +12°C° 1.6 mm 7 m/S 746 mmHg 92%
14:00 +12°C° 1.6 mm 7 m/S 746 mmHg 92%
15:00 +13°C° 2.1 mm 6 m/S 746 mmHg 93%
16:00 +14°C° 2.1 mm 6 m/S 746 mmHg 94%
17:00 +14°C° 2.1 mm 5 m/S 746 mmHg 94%
18:00 +14°C° 0.8 mm 4 m/S 746 mmHg 94%
19:00 +14°C° 0.8 mm 3 m/S 746 mmHg 94%
20:00 +15°C° 0.8 mm 2 m/S 746 mmHg 93%
21:00 +13°C° 0 mm 3 m/S 746 mmHg 93%
22:00 +13°C° 0 mm 3 m/S 746 mmHg 93%
23:00 +13°C° 0 mm 3 m/S 746 mmHg 92%

Morgen, 15 Juli, Mittwoch

Zeit Temperatur Niederschläge Wind Luftdruck Luftfeuchtigkeit
00:00 +12°C° 0 mm 4 m/S 747 mmHg 92%
01:00 +12°C° 0 mm 4 m/S 747 mmHg 92%
02:00 +12°C° 0 mm 4 m/S 747 mmHg 92%
03:00 +12°C° 0 mm 4 m/S 747 mmHg 92%
04:00 +12°C° 0 mm 4 m/S 747 mmHg 92%
05:00 +11°C° 0 mm 4 m/S 747 mmHg 92%
06:00 +13°C° 0 mm 4 m/S 747 mmHg 89%
07:00 +14°C° 0 mm 5 m/S 748 mmHg 85%
08:00 +16°C° 0 mm 5 m/S 748 mmHg 82%
09:00 +17°C° 0.1 mm 5 m/S 748 mmHg 76%
10:00 +20°C° 0.1 mm 5 m/S 748 mmHg 70%
11:00 +21°C° 0.1 mm 6 m/S 748 mmHg 64%
12:00 +21°C° 0.2 mm 5 m/S 748 mmHg 64%
13:00 +21°C° 0.2 mm 5 m/S 748 mmHg 64%
14:00 +22°C° 0.2 mm 5 m/S 748 mmHg 64%
15:00 +22°C° 0.1 mm 4 m/S 748 mmHg 67%
16:00 +21°C° 0.1 mm 4 m/S 748 mmHg 69%
17:00 +21°C° 0.1 mm 3 m/S 748 mmHg 72%
18:00 +20°C° 0.1 mm 3 m/S 748 mmHg 74%
19:00 +19°C° 0.1 mm 2 m/S 749 mmHg 77%
20:00 +17°C° 0.1 mm 2 m/S 749 mmHg 80%
21:00 +16°C° 0 mm 2 m/S 749 mmHg 82%
22:00 +16°C° 0 mm 1 m/S 749 mmHg 84%
23:00 +15°C° 0 mm 1 m/S 749 mmHg 86%

übermorgen, 16 Juli, Donnerstag

Zeit Temperatur Niederschläge Wind Luftdruck Luftfeuchtigkeit
00:00 +15°C° 0 mm 1 m/S 749 mmHg 87%
01:00 +14°C° 0 mm 1 m/S 749 mmHg 88%
02:00 +14°C° 0 mm 1 m/S 749 mmHg 88%
03:00 +14°C° 0 mm 1 m/S 749 mmHg 88%
04:00 +14°C° 0 mm 1 m/S 749 mmHg 88%
05:00 +14°C° 0 mm 1 m/S 749 mmHg 88%
06:00 +15°C° 0 mm 1 m/S 749 mmHg 84%
07:00 +18°C° 0 mm 1 m/S 749 mmHg 79%
08:00 +20°C° 0 mm 1 m/S 749 mmHg 74%
09:00 +21°C° 0 mm 1 m/S 749 mmHg 69%
10:00 +22°C° 0 mm 1 m/S 749 mmHg 63%
11:00 +23°C° 0 mm 1 m/S 749 mmHg 58%
12:00 +24°C° 0 mm 1 m/S 749 mmHg 57%
13:00 +24°C° 0 mm 1 m/S 749 mmHg 56%
14:00 +25°C° 0 mm 1 m/S 749 mmHg 55%
15:00 +25°C° 0 mm 1 m/S 749 mmHg 56%
16:00 +25°C° 0 mm 1 m/S 748 mmHg 58%
17:00 +25°C° 0 mm 1 m/S 748 mmHg 60%
18:00 +23°C° 0.1 mm 1 m/S 748 mmHg 65%
19:00 +22°C° 0.1 mm 1 m/S 748 mmHg 70%
20:00 +20°C° 0.1 mm 1 m/S 748 mmHg 76%
21:00 +20°C° 0 mm 1 m/S 748 mmHg 77%
22:00 +18°C° 0 mm 2 m/S 748 mmHg 79%
23:00 +18°C° 0 mm 2 m/S 748 mmHg 80%

17 Juli, Freitag

Zeit Temperatur Niederschläge Wind Luftdruck Luftfeuchtigkeit
00:00 +17°C° 0 mm 2 m/S 748 mmHg 81%
01:00 +17°C° 0 mm 2 m/S 748 mmHg 82%
02:00 +16°C° 0 mm 2 m/S 748 mmHg 84%
03:00 +16°C° 0 mm 2 m/S 748 mmHg 85%
04:00 +16°C° 0 mm 2 m/S 748 mmHg 86%
05:00 +16°C° 0 mm 2 m/S 748 mmHg 87%
06:00 +18°C° 0 mm 2 m/S 748 mmHg 83%
07:00 +19°C° 0 mm 2 m/S 748 mmHg 78%
08:00 +21°C° 0 mm 2 m/S 748 mmHg 74%
09:00 +23°C° 0.1 mm 2 m/S 748 mmHg 70%
10:00 +25°C° 0.1 mm 2 m/S 748 mmHg 65%
11:00 +26°C° 0.1 mm 2 m/S 748 mmHg 61%
12:00 +26°C° 1.4 mm 3 m/S 748 mmHg 63%
13:00 +26°C° 1.4 mm 3 m/S 748 mmHg 64%
14:00 +26°C° 1.4 mm 3 m/S 748 mmHg 65%
15:00 +26°C° 0.8 mm 2 m/S 748 mmHg 67%
16:00 +26°C° 0.8 mm 2 m/S 748 mmHg 69%
17:00 +25°C° 0.8 mm 1 m/S 748 mmHg 70%
18:00 +24°C° 0.1 mm 1 m/S 748 mmHg 72%
19:00 +23°C° 0.1 mm 1 m/S 748 mmHg 75%
20:00 +21°C° 0.1 mm 1 m/S 748 mmHg 77%
21:00 +21°C° 0 mm 1 m/S 748 mmHg 77%
22:00 +20°C° 0 mm 1 m/S 748 mmHg 78%
23:00 +20°C° 0 mm 1 m/S 748 mmHg 79%

18 Juli, Samstag

Zeit Temperatur Niederschläge Wind Luftdruck Luftfeuchtigkeit
00:00 +19°C° 0 mm 1 m/S 748 mmHg 80%
01:00 +19°C° 0 mm 1 m/S 748 mmHg 81%
02:00 +19°C° 0 mm 1 m/S 749 mmHg 82%
03:00 +19°C° 0 mm 1 m/S 749 mmHg 83%
04:00 +19°C° 0 mm 1 m/S 749 mmHg 83%
05:00 +19°C° 0 mm 1 m/S 749 mmHg 84%
06:00 +20°C° 0 mm 1 m/S 749 mmHg 80%
07:00 +22°C° 0 mm 1 m/S 749 mmHg 76%
08:00 +24°C° 0 mm 1 m/S 749 mmHg 72%
09:00 +25°C° 0.3 mm 2 m/S 749 mmHg 68%
10:00 +25°C° 0.3 mm 2 m/S 749 mmHg 64%
11:00 +26°C° 0.3 mm 2 m/S 749 mmHg 61%
12:00 +27°C° 0.1 mm 2 m/S 749 mmHg 58%
13:00 +27°C° 0.1 mm 1 m/S 749 mmHg 55%
14:00 +28°C° 0.1 mm 1 m/S 749 mmHg 53%
15:00 +27°C° 0 mm 1 m/S 749 mmHg 56%
16:00 +27°C° 0 mm 1 m/S 749 mmHg 60%
17:00 +24°C° 0 mm 0 m/S 749 mmHg 63%
18:00 +25°C° 0.1 mm 1 m/S 749 mmHg 66%
19:00 +24°C° 0.1 mm 1 m/S 749 mmHg 69%
20:00 +22°C° 0.1 mm 1 m/S 749 mmHg 72%
21:00 +22°C° 0 mm 1 m/S 749 mmHg 74%
22:00 +21°C° 0 mm 1 m/S 749 mmHg 76%
23:00 +20°C° 0 mm 1 m/S 749 mmHg 77%

19 Juli, Sonntag

Zeit Temperatur Niederschläge Wind Luftdruck Luftfeuchtigkeit
00:00 +20°C° 0 mm 1 m/S 749 mmHg 79%
01:00 +20°C° 0 mm 1 m/S 749 mmHg 80%
02:00 +19°C° 0 mm 1 m/S 749 mmHg 81%
03:00 +19°C° 0 mm 1 m/S 749 mmHg 82%
04:00 +19°C° 0 mm 1 m/S 749 mmHg 83%
05:00 +18°C° 0 mm 2 m/S 749 mmHg 84%
06:00 +20°C° 0 mm 2 m/S 749 mmHg 81%
07:00 +21°C° 0 mm 2 m/S 749 mmHg 78%
08:00 +23°C° 0 mm 2 m/S 749 mmHg 75%
09:00 +25°C° 0.4 mm 1 m/S 749 mmHg 69%
10:00 +26°C° 0.4 mm 1 m/S 749 mmHg 63%
11:00 +27°C° 0.4 mm 1 m/S 748 mmHg 57%
12:00 +27°C° 0.3 mm 1 m/S 748 mmHg 55%
13:00 +28°C° 0.3 mm 1 m/S 748 mmHg 54%
14:00 +26°C° 0.3 mm 0 m/S 748 mmHg 52%
15:00 +27°C° 0.4 mm 1 m/S 748 mmHg 59%
16:00 +26°C° 0.4 mm 2 m/S 748 mmHg 66%
17:00 +25°C° 0.4 mm 2 m/S 748 mmHg 73%
18:00 +24°C° 0.1 mm 3 m/S 747 mmHg 78%
19:00 +21°C° 0.1 mm 3 m/S 747 mmHg 83%
20:00 +20°C° 0.1 mm 3 m/S 747 mmHg 89%
21:00 +19°C° 0.1 mm 3 m/S 747 mmHg 90%
22:00 +19°C° 0.1 mm 3 m/S 747 mmHg 91%
23:00 +18°C° 0.1 mm 3 m/S 747 mmHg 92%
Mehr zeigen